Weather History for Kununurra, WE

Change the Weather History Date:

Saturday, June 29, 2013

  Actual Average Record
Temperature  
Mean Temperature 79 °F -  
Max Temperature 92 °F - - ()
Min Temperature 66 °F - - ()
Cooling Degree Days 14    
Growing Degree Days 29 (Base 50)    
Moisture  
Dew Point 47 °F    
Average Humidity 37    
Maximum Humidity 94    
Minimum Humidity 7    
Precipitation  
Precipitation 0.00 in - - ()
Sea Level Pressure  
Sea Level Pressure 29.97 in    
Wind  
Wind Speed 6 mph ()    
Max Wind Speed 17 mph    
Max Gust Speed -    
Visibility 6.2 miles    
Events      
T = Trace of Precipitation, MM = Missing Value Source: Averaged Metar Reports

Daily Weather History Graph

Daily Weather History Graph

Search for Another Location

Airport:

Trip Planner

Search our weather history database for the weather conditions in past years. The results will help you decide how hot, cold, wet, or windy it might be!

Date:

Astronomy

Jun. 29, 2013 Rise Set
Actual Time 5:52 AM WST 5:04 PM WST
Civil Twilight 5:29 AM WST 5:27 PM WST
Nautical Twilight 5:02 AM WST 5:54 PM WST
Astronomical Twilight 4:35 AM WST 6:21 PM WST
Moon 10:56 PM WST (6/29) 10:25 AM WST (6/29)
Length of Visible Light 11h 58m
Length of Day
11h 11m
Waning Gibbous, 61% of the Moon is Illuminated
Jun 29
Waning Gibbous
Jun 30
Last Quarter
Jul 8
New
Jul 16
First Quarter
Jul 23
Full

Hourly Weather History & Observations

Time (WST) Temp. Dew Point Humidity Pressure Visibility Wind Dir Wind Speed Gust Speed Precip Events Conditions
12:00 AM 71 °F 65 °F 77% 29.92 in - Calm Calm - -  
12:00 AM 69.8 °F 66.2 °F 88% 29.92 in 6.2 mi Calm Calm - N/A   Unknown
12:30 AM 71.6 °F 64.4 °F 78% 29.92 in 6.2 mi SW 2.3 mph - N/A   Mostly Cloudy
1:00 AM 71.6 °F 66.2 °F 83% 29.92 in 6.2 mi Calm Calm - N/A   Overcast
1:30 AM 71.6 °F 66.2 °F 83% 29.92 in 6.2 mi NNE 1.2 mph - N/A   Overcast
2:00 AM 72 °F 65 °F 74% 29.91 in - Calm Calm - -  
2:00 AM 71.6 °F 66.2 °F 83% 29.92 in 6.2 mi Calm Calm - N/A   Overcast
2:30 AM 71.6 °F 64.4 °F 78% 29.92 in 6.2 mi SW 4.6 mph - N/A   Overcast
3:00 AM 70 °F 65 °F 78% 29.93 in - South 1.2 mph - -  
3:00 AM 69.8 °F 64.4 °F 83% 29.92 in 6.2 mi South 1.2 mph - N/A   Scattered Clouds
3:30 AM 68.0 °F 66.2 °F 94% 29.92 in 6.2 mi East 3.5 mph - N/A   Unknown
4:00 AM 68.0 °F 64.4 °F 88% 29.92 in 6.2 mi ENE 3.5 mph - N/A   Mostly Cloudy
4:30 AM 68.0 °F 64.4 °F 88% 29.95 in 6.2 mi Calm Calm - N/A   Overcast
5:00 AM 68 °F 65 °F 85% 29.95 in - ESE 3.5 mph - -  
5:00 AM 68.0 °F 64.4 °F 88% 29.95 in 6.2 mi ESE 3.5 mph - N/A   Scattered Clouds
5:30 AM 69.8 °F 62.6 °F 78% 29.95 in 6.2 mi ESE 6.9 mph - N/A   Unknown
6:00 AM 69 °F 61 °F 70% 29.98 in - ESE 4.6 mph - -  
6:00 AM 69.8 °F 60.8 °F 73% 29.98 in 6.2 mi ESE 4.6 mph - N/A   Unknown
6:30 AM 68.0 °F 62.6 °F 83% 29.98 in 6.2 mi ESE 2.3 mph - N/A   Unknown
7:00 AM 75.2 °F 53.6 °F 47% 29.98 in 6.2 mi ESE 6.9 mph - N/A   Unknown
7:30 AM 78.8 °F 44.6 °F 30% 30.01 in 6.2 mi ESE 8.1 mph - N/A   Unknown
8:00 AM 82 °F 40 °F 13% 30.01 in - ESE 10.4 mph - -  
8:00 AM 82.4 °F 39.2 °F 21% 30.01 in 6.2 mi ESE 10.4 mph - N/A   Unknown
8:30 AM 84.2 °F 39.2 °F 20% 30.01 in 6.2 mi ESE 10.4 mph - N/A   Unknown
9:00 AM 85 °F 39 °F 11% 30.02 in - East 17.3 mph - -  
9:00 AM 86.0 °F 39.2 °F 19% 30.01 in 6.2 mi East 17.3 mph - N/A   Unknown
9:30 AM 86.0 °F 41.0 °F 20% 30.01 in 6.2 mi East 13.8 mph - N/A   Unknown
10:00 AM 87.8 °F 41.0 °F 19% 30.01 in 6.2 mi ENE 13.8 mph - N/A   Unknown
10:30 AM 87.8 °F 39.2 °F 18% 30.01 in 6.2 mi East 13.8 mph - N/A   Unknown
11:00 AM 88 °F 38 °F 9% 29.99 in - ESE 12.7 mph - -  
11:00 AM 87.8 °F 39.2 °F 18% 29.98 in 6.2 mi ESE 12.7 mph - N/A   Unknown
11:30 AM 87.8 °F 37.4 °F 17% 29.98 in 6.2 mi East 11.5 mph - N/A   Unknown
12:00 PM 89 °F 38 °F 9% 29.97 in - East 13.8 mph - -  
12:00 PM 89.6 °F 37.4 °F 16% 29.98 in 6.2 mi East 13.8 mph - N/A   Unknown
12:30 PM 91.4 °F 37.4 °F 15% 29.95 in 6.2 mi East 12.7 mph - N/A   Unknown
1:00 PM 91.4 °F 39.2 °F 16% 29.95 in 6.2 mi ENE 10.4 mph - N/A   Unknown
1:30 PM 91.4 °F 37.4 °F 15% 29.95 in 6.2 mi ESE 11.5 mph - N/A   Unknown
2:00 PM 91 °F 38 °F 8% 29.94 in - ESE 12.7 mph - -  
2:00 PM 91.4 °F 37.4 °F 15% 29.92 in 6.2 mi ESE 12.7 mph - N/A   Unknown
2:30 PM 91.4 °F 37.4 °F 15% 29.92 in 6.2 mi East 9.2 mph - N/A   Unknown
3:00 PM 91 °F 36 °F 7% 29.93 in - ESE 12.7 mph - -  
3:00 PM 91.4 °F 35.6 °F 14% 29.92 in 6.2 mi ESE 12.7 mph - N/A   Unknown
3:30 PM 91.4 °F 37.4 °F 15% 29.92 in 6.2 mi East 9.2 mph - N/A   Unknown
4:00 PM 89.6 °F 39.2 °F 17% 29.92 in 6.2 mi ESE 9.2 mph - N/A   Unknown
4:30 PM 87.8 °F 37.4 °F 17% 29.92 in 6.2 mi ESE 9.2 mph - N/A   Unknown
5:00 PM 85 °F 39 °F 11% 29.95 in - ESE 8.1 mph - -  
5:00 PM 86.0 °F 39.2 °F 19% 29.95 in 6.2 mi ESE 8.1 mph - N/A   Unknown
5:30 PM 82.4 °F 39.2 °F 21% 29.95 in 6.2 mi ESE 6.9 mph - N/A   Unknown
6:00 PM 80 °F 41 °F 15% 29.98 in - ESE 6.9 mph - -  
6:00 PM 80.6 °F 41.0 °F 24% 29.98 in 6.2 mi ESE 6.9 mph - N/A   Unknown
6:30 PM 77.0 °F 44.6 °F 32% 29.98 in 6.2 mi ESE 6.9 mph - N/A   Unknown
7:00 PM 77.0 °F 42.8 °F 29% 30.01 in 6.2 mi ESE 8.1 mph - N/A   Unknown
7:30 PM 78.8 °F 42.8 °F 28% 30.01 in 6.2 mi ESE 8.1 mph - N/A   Unknown
8:00 PM 81 °F 40 °F 14% 30.03 in - SE 5.8 mph - -  
8:00 PM 80.6 °F 41.0 °F 24% 30.01 in 6.2 mi SE 5.8 mph - N/A   Unknown
8:30 PM 80.6 °F 41.0 °F 24% 30.04 in 6.2 mi SE 8.1 mph - N/A   Unknown
9:00 PM 81 °F 37 °F 12% 30.04 in - ESE 12.7 mph - -  
9:00 PM 80.6 °F 37.4 °F 21% 30.04 in 6.2 mi ESE 12.7 mph - N/A   Unknown
9:30 PM 80.6 °F 37.4 °F 21% 30.04 in 6.2 mi ESE 10.4 mph - N/A   Unknown
10:00 PM 80.6 °F 35.6 °F 20% 30.04 in 6.2 mi SE 15.0 mph - N/A   Unknown
10:30 PM 80.6 °F 35.6 °F 20% 30.04 in 6.2 mi SE 15.0 mph - N/A   Unknown
11:00 PM 80 °F 37 °F 12% 30.06 in - ESE 12.7 mph - -  
11:00 PM 78.8 °F 37.4 °F 23% 30.04 in 6.2 mi ESE 12.7 mph - N/A   Unknown
11:30 PM 80.6 °F 35.6 °F 20% 30.04 in 6.2 mi SE 12.7 mph - N/A   Unknown